STARLINK-2383, 47802

Orbit data source: Space-Track

STARLINK-2383, 47802 is a payload satellite owned by SpaceX/Seattle (US) in LEO that was launched on Thu, 11 Mar 2021 UTC via an FALCON 9 launch vehicle from the Air Force Eastern Test Range (AFETR). Payload-class satellites include a variety of spacecraft equipped with specific instruments for various scientific and technological missions. These include communications satellites like Starlink; space stations such as the ISS; scientific satellites like the Hubble; Earth observation satellites from companies like Planet Labs, Umbra, and HawkEye 360; GPS; miniature CubeSats for education and research; and military/defense satellites.

Loading next visibility...
Identifier
47802, 2021-018R
Orbit
LEO
Country
Flag of USUS
Related business
Manufacturer
SpaceX/Seattle
Mission
Operational Commercial Communications
Bus & Motor
STARLINK, Unknown motor
Mass
260 kg wet, ~248 kg dry
Launch date (UTC)
2021-03-11 (5 years ago)
Launch vehicle
FALCON 9
Launch site
Air Force Eastern Test Range (AFETR)
Object type
Payload
Rocket body
Debris
Shape & HBR
Box + 1 Pan, 10.1 m
Radar Cross Section
13.562 m², Large (>1 m²)

Expand to show TLE details & history
Last TLE update: 11 hours ago

TLE from 11 hours ago
0 STARLINK-2383
1 47802U 21018R   26035.32968661  .00000570  00000-0  57179-4 0  9995
2 47802  53.0555  46.3803 0001405  90.5563 269.5587 15.06396821271506
Epoch: 2026-02-04T07:54Z
TLE epoch observation values (Epoch: 2026-02-04T07:54:44.923Z)
Latitude
-0°
Longitude
153.1953°
Altitude
548.108 km
Speed
7.589 km/s
True Right ascension
03h 05m 31s
True Declination
0° 00' 00"
Sunlit
Object was in daylight at epoch
Visualization orbit readout
Latitude
Unknown
Longitude
Unknown
Altitude
Unknown
Speed
Unknown
Apparent Right ascension
Unknown
Apparent Declination
Unknown
Sunlit
N/A
Visualization observer readout
Local Sidereal Time
21:23:57
Azimuth
Unknown
Elevation
Unknown
Doppler factor
Unknown
Orbital elements
Apogee altitude
548.465 km
Perigee altitude
546.519 km
Semi-major axis
6,925.629 km
Eccentricity
0.00014
Inclination
53.0555°
RAAN
46.3803°
Arg. of periapsis
90.5563°
True anomaly
269.5426°
Mean anomaly
269.5587°
Eccentric anomaly
269.55065°
Mean motion
3.76577 °/min
Orbital period
95.6 mins
BSTAR
0.000057179
Loading maneuver chart data...
Computing Atmospheric mass density...
Loading historical data...
Loading historical data...
Loading historical data...
Loading historical data...
Loading historical data...
Loading historical data...
Loading historical data...

Documentation

Showing up to 5 results
|